Regional Weather Roundup
Issued by NWS

Home | Current Version | Previous Version | Graphics & Text | Print | Product List | Glossary On
Versions: 1 2 3 4 5 6 7 8 9 10 11 12 13 14 15 16 17 18 19 20 21 22 23 24 25 26 27 28 29 30 31 32 33 34 35 36 37 38 39 40 41 42 43 44 45 46 47 48 49 50
989
ASUS44 KMEG 231410
RWRTN
TENNESSEE HOURLY STATE WEATHER ROUNDUP
NATIONAL WEATHER SERVICE MEMPHIS TN
900 AM CDT SAT SEP 23 2017

TNZ002-004-019-021-049-052-054-088>092-231500-
WEST TENNESSEE

CITY           SKY/WX    TMP DP  RH WIND       PRES   REMARKS
MEMPHIS INTL   SUNNY     79  70  74 E3        30.03R
NWS MEMPHIS      N/A     76 N/A N/A MISG        N/A
JACKSON        SUNNY     76  71  85 CALM      30.06R
DYERSBURG      SUNNY     77  71  82 E3        30.06R
SOMERVILLE     SUNNY     77  72  83 CALM      30.03S
COVINGTON      SUNNY     75  72  88 SE3       30.05R
BOLIVAR        SUNNY     75  70  83 VRB3      30.05R
PARIS          SUNNY     77  72  83 VRB3      30.05S
HUNTINGDON     SUNNY     75  70  83 E3        30.05S
LEXINGTON      SUNNY     75  70  83 CALM      30.06R
SELMER         SUNNY     75  70  83 CALM      30.05S
SAVANNAH       SUNNY     73  70  88 CALM      30.05R
$$

TNZ008-025-027-028-033-062-065-066-231500-
NORTH MIDDLE TENNESSEE

CITY           SKY/WX    TMP DP  RH WIND       PRES   REMARKS
NASHVILLE      MOSUNNY   77  69  76 CALM      30.08R
PORTLAND       SUNNY     75  70  83 CALM      30.08R
CLARKSVILLE    SUNNY     74  68  81 CALM      30.07R
SMYRNA         SUNNY     75  70  84 CALM      30.08R
COOKEVILLE     SUNNY     70  68  94 CALM      30.10R
GALLATIN       SUNNY     75  70  83 VRB3      30.10S
CROSSVILLE     MOSUNNY   73  66  78 CALM      30.15R
$$

TNZ061-075-076-078-094-096-097-231500-
SOUTH MIDDLE TENNESSEE

CITY           SKY/WX    TMP DP  RH WIND       PRES   REMARKS
FAYETTEVILLE   SUNNY     75  70  83 SE3       30.08R
TULLAHOMA      SUNNY     73  66  78 CALM      30.10R
WINCHESTER     SUNNY     75  68  78 CALM      30.09R
MCMINNVILLE    SUNNY     73  73 100 CALM      30.10R
COLUMBIA       SUNNY     72 N/A N/A CALM      30.06R
SHELBYVILLE    SUNNY     75  70  83 CALM      30.08R
$$

TNZ017-018-042-046-047-231500-
NORTHEAST TENNESSEE

CITY           SKY/WX    TMP DP  RH WIND       PRES   REMARKS
TRI CITIES     MOSUNNY   72  66  81 CALM      30.14R
ELIZABETHTON   SUNNY     73  64  73 VRB5      30.14R
$$

TNZ012-013-036-069-073-074-231500-
CENTRAL EAST TENNESSEE

CITY           SKY/WX    TMP DP  RH WIND       PRES   REMARKS
KNOXVILLE      PTSUNNY   71  65  81 NE3       30.10R
OAK RIDGE      SUNNY     75  66  73 CALM      30.11S
DOWNTOWN KNOXV SUNNY     72  68  88 E3        30.10R
GATLINBURG     SUNNY     70  63  78 CALM      30.11R
MORRISTOWN     SUNNY     75  64  69 CALM      30.11S
JACKSBORO      SUNNY     72  68  88 CALM      30.16R
$$

TNZ083-085-099-231500-
SOUTHEAST TENNESSEE

CITY           SKY/WX    TMP DP  RH WIND       PRES   REMARKS
CHATTANOOGA    PTSUNNY   76  68  76 N3        30.09R
DAYTON         SUNNY     73  72  94 N5        30.09R
$$

SKY/WX REPORTED AS FAIR MEANS FEW OR NO CLOUDS BELOW
12 THOUSAND FEET.





USA.gov is the U.S. government's official web portal to all federal, state and local government web resources and services.